When you browse on this site, cookies collect data to enhance your experience and personalize the content and advertising you see.
Visit our Privacy Policy to learn more. By continuing to use the site, you agree to this use of cookies and data.
  • In Czech Republic
  • List of Countries
  • For 7 days
  • Water Temperature
  • Satellite Maps
  • Weather Map
  • Weather Widgets
  • user-avatar
    Login

    Hourly Weather Parcelacja

    Today, 19 December, Wednesday

    Time Temperature Precipitation Wind Pressure Humidity
    00:00 -4°C° 0 mm 1 mps 749 mmHg 94%
    01:00 -4°C° 0 mm 1 mps 749 mmHg 94%
    02:00 -4°C° 0 mm 1 mps 749 mmHg 94%
    03:00 -6°C° 0 mm 1 mps 749 mmHg 94%
    04:00 -6°C° 0 mm 1 mps 749 mmHg 94%
    05:00 -7°C° 0 mm 2 mps 749 mmHg 93%
    06:00 -7°C° 0 mm 2 mps 748 mmHg 93%
    07:00 -8°C° 0 mm 2 mps 748 mmHg 93%
    08:00 -7°C° 0 mm 2 mps 748 mmHg 90%
    09:00 -7°C° 0 mm 3 mps 748 mmHg 87%
    10:00 -6°C° 0 mm 3 mps 748 mmHg 84%
    11:00 -6°C° 0 mm 3 mps 748 mmHg 84%
    12:00 -5°C° 0 mm 3 mps 748 mmHg 83%
    13:00 -4°C° 0 mm 3 mps 747 mmHg 82%
    14:00 -5°C° 0 mm 3 mps 747 mmHg 85%
    15:00 -6°C° 0 mm 3 mps 747 mmHg 87%
    16:00 -7°C° 0 mm 3 mps 747 mmHg 90%
    17:00 -7°C° 0 mm 3 mps 747 mmHg 90%
    18:00 -7°C° 0 mm 3 mps 746 mmHg 90%
    19:00 -7°C° 0 mm 3 mps 746 mmHg 90%
    20:00 -7°C° 0 mm 3 mps 746 mmHg 89%
    21:00 -7°C° 0 mm 3 mps 746 mmHg 89%
    22:00 -7°C° 0 mm 3 mps 746 mmHg 88%
    23:00 -7°C° 0 mm 3 mps 746 mmHg 86%

    Tomorrow, 20 December, Thursday

    Time Temperature Precipitation Wind Pressure Humidity
    00:00 -7°C° 0 mm 3 mps 745 mmHg 85%
    01:00 -7°C° 0 mm 3 mps 745 mmHg 84%
    02:00 -7°C° 0 mm 3 mps 745 mmHg 83%
    03:00 -7°C° 0 mm 3 mps 745 mmHg 82%
    04:00 -7°C° 0 mm 3 mps 744 mmHg 81%
    05:00 -7°C° 0 mm 3 mps 744 mmHg 81%
    06:00 -6°C° 0 mm 3 mps 744 mmHg 81%
    07:00 -6°C° 0 mm 3 mps 744 mmHg 80%
    08:00 -5°C° 0 mm 3 mps 744 mmHg 78%
    09:00 -4°C° 0 mm 4 mps 744 mmHg 77%
    10:00 -4°C° 0 mm 4 mps 744 mmHg 75%
    11:00 -3°C° 0 mm 4 mps 744 mmHg 75%
    12:00 -3°C° 0 mm 4 mps 744 mmHg 76%
    13:00 -1°C° 0 mm 3 mps 744 mmHg 76%
    14:00 -1°C° 0.1 mm 3 mps 744 mmHg 79%
    15:00 -2°C° 0.1 mm 3 mps 743 mmHg 83%
    16:00 -2°C° 0.1 mm 3 mps 743 mmHg 86%
    17:00 -2°C° 0.3 mm 3 mps 743 mmHg 87%
    18:00 -2°C° 0.3 mm 3 mps 743 mmHg 89%
    19:00 -2°C° 0.3 mm 3 mps 744 mmHg 90%
    20:00 -2°C° 0.1 mm 3 mps 744 mmHg 89%
    21:00 -3°C° 0.1 mm 4 mps 744 mmHg 89%
    22:00 -3°C° 0.1 mm 4 mps 744 mmHg 88%
    23:00 -3°C° 0.1 mm 4 mps 744 mmHg 88%

    Day after tomorrow, 21 December, Friday

    Time Temperature Precipitation Wind Pressure Humidity
    00:00 -2°C° 0.1 mm 4 mps 744 mmHg 88%
    01:00 -2°C° 0.1 mm 4 mps 744 mmHg 87%
    02:00 -2°C° 0.1 mm 4 mps 744 mmHg 87%
    03:00 -2°C° 0.1 mm 4 mps 743 mmHg 88%
    04:00 -2°C° 0.1 mm 4 mps 743 mmHg 88%
    05:00 -2°C° 0 mm 4 mps 743 mmHg 88%
    06:00 -2°C° 0 mm 4 mps 743 mmHg 87%
    07:00 -3°C° 0 mm 4 mps 743 mmHg 87%
    08:00 -2°C° 0 mm 4 mps 743 mmHg 86%
    09:00 -1°C° 0 mm 5 mps 743 mmHg 85%
    10:00 -1°C° 0 mm 5 mps 743 mmHg 84%
    11:00 -1°C° 0 mm 5 mps 743 mmHg 84%
    12:00 -1°C° 0 mm 5 mps 742 mmHg 84%
    13:00 0°C° 0 mm 5 mps 742 mmHg 85%
    14:00 -1°C° 0 mm 5 mps 742 mmHg 85%
    15:00 -1°C° 0 mm 5 mps 741 mmHg 85%
    16:00 -1°C° 0 mm 5 mps 741 mmHg 85%
    17:00 -1°C° 0.1 mm 5 mps 741 mmHg 85%
    18:00 -2°C° 0.1 mm 6 mps 740 mmHg 85%
    19:00 -2°C° 0.1 mm 6 mps 740 mmHg 85%
    20:00 -2°C° 0.3 mm 6 mps 739 mmHg 85%
    21:00 -2°C° 0.3 mm 6 mps 738 mmHg 84%
    22:00 -2°C° 0.3 mm 7 mps 738 mmHg 84%
    23:00 -2°C° 0.6 mm 7 mps 737 mmHg 84%

    22 December, Saturday

    Time Temperature Precipitation Wind Pressure Humidity
    00:00 -2°C° 0.6 mm 7 mps 736 mmHg 85%
    01:00 -1°C° 0.6 mm 7 mps 736 mmHg 86%
    02:00 -1°C° 0.4 mm 7 mps 735 mmHg 86%
    03:00 -1°C° 0.4 mm 7 mps 735 mmHg 87%
    04:00 -1°C° 0.4 mm 7 mps 735 mmHg 87%
    05:00 -1°C° 0.3 mm 6 mps 735 mmHg 88%
    06:00 +1°C° 0.3 mm 6 mps 735 mmHg 89%
    07:00 +1°C° 0.3 mm 6 mps 735 mmHg 90%
    08:00 +1°C° 0.1 mm 6 mps 735 mmHg 90%
    09:00 +1°C° 0.1 mm 6 mps 736 mmHg 90%
    10:00 +2°C° 0.1 mm 6 mps 736 mmHg 90%
    11:00 +2°C° 0 mm 6 mps 736 mmHg 90%
    12:00 +2°C° 0 mm 5 mps 736 mmHg 89%
    13:00 +2°C° 0 mm 5 mps 735 mmHg 89%
    14:00 +2°C° 0 mm 5 mps 735 mmHg 89%
    15:00 +2°C° 0 mm 5 mps 735 mmHg 89%
    16:00 +1°C° 0 mm 5 mps 735 mmHg 89%
    17:00 +2°C° 0.2 mm 5 mps 734 mmHg 89%
    18:00 +2°C° 0.2 mm 5 mps 734 mmHg 89%
    19:00 +2°C° 0.2 mm 6 mps 733 mmHg 89%
    20:00 +2°C° 0.5 mm 6 mps 733 mmHg 88%
    21:00 +2°C° 0.5 mm 6 mps 733 mmHg 88%
    22:00 +3°C° 0.5 mm 7 mps 733 mmHg 87%
    23:00 +3°C° 0.1 mm 7 mps 733 mmHg 87%

    23 December, Sunday

    Time Temperature Precipitation Wind Pressure Humidity
    00:00 +2°C° 0.1 mm 7 mps 733 mmHg 87%
    01:00 +2°C° 0.1 mm 7 mps 734 mmHg 87%
    02:00 +2°C° 0 mm 7 mps 734 mmHg 87%
    03:00 +2°C° 0 mm 7 mps 735 mmHg 87%
    04:00 +2°C° 0 mm 7 mps 735 mmHg 88%
    05:00 +2°C° 0 mm 6 mps 735 mmHg 88%
    06:00 +1°C° 0 mm 6 mps 736 mmHg 88%
    07:00 +1°C° 0 mm 6 mps 736 mmHg 88%
    08:00 +2°C° 0.1 mm 6 mps 736 mmHg 87%
    09:00 +2°C° 0.1 mm 7 mps 737 mmHg 85%
    10:00 +2°C° 0.1 mm 7 mps 737 mmHg 84%
    11:00 +2°C° 0.1 mm 7 mps 737 mmHg 84%
    12:00 +3°C° 0.1 mm 7 mps 737 mmHg 84%
    13:00 +3°C° 0.1 mm 7 mps 737 mmHg 84%
    14:00 +2°C° 0.2 mm 7 mps 737 mmHg 84%
    15:00 +2°C° 0.2 mm 6 mps 737 mmHg 85%
    16:00 +2°C° 0.2 mm 6 mps 738 mmHg 85%
    17:00 +2°C° 0.1 mm 6 mps 738 mmHg 85%
    18:00 +2°C° 0.1 mm 6 mps 738 mmHg 86%
    19:00 +2°C° 0.1 mm 6 mps 738 mmHg 86%
    20:00 +2°C° 0 mm 6 mps 738 mmHg 86%
    21:00 +1°C° 0 mm 6 mps 739 mmHg 86%
    22:00 +1°C° 0 mm 6 mps 739 mmHg 86%
    23:00 +1°C° 0 mm 6 mps 739 mmHg 86%

    24 December, Monday

    Time Temperature Precipitation Wind Pressure Humidity
    00:00 +1°C° 0 mm 6 mps 739 mmHg 86%
    01:00 +1°C° 0 mm 5 mps 739 mmHg 86%
    02:00 +1°C° 0 mm 5 mps 739 mmHg 86%
    03:00 +1°C° 0 mm 5 mps 738 mmHg 86%
    04:00 0°C° 0 mm 5 mps 738 mmHg 86%
    05:00 +1°C° 0.1 mm 6 mps 738 mmHg 86%
    06:00 +1°C° 0.1 mm 6 mps 739 mmHg 85%
    07:00 +1°C° 0.1 mm 6 mps 739 mmHg 84%
    08:00 +1°C° 0.1 mm 6 mps 739 mmHg 84%
    09:00 +1°C° 0.1 mm 6 mps 739 mmHg 83%
    10:00 +1°C° 0.1 mm 6 mps 740 mmHg 83%
    11:00 +1°C° 0.1 mm 6 mps 740 mmHg 83%
    12:00 +1°C° 0.1 mm 5 mps 740 mmHg 82%
    13:00 +1°C° 0.1 mm 4 mps 741 mmHg 82%
    14:00 +1°C° 0 mm 4 mps 741 mmHg 83%
    15:00 +1°C° 0 mm 3 mps 741 mmHg 85%
    16:00 +2°C° 0 mm 2 mps 741 mmHg 87%
    17:00 +2°C° 0.1 mm 2 mps 741 mmHg 88%
    18:00 +2°C° 0.1 mm 2 mps 742 mmHg 90%
    19:00 +1°C° 0.1 mm 3 mps 742 mmHg 91%
    20:00 +1°C° 0.1 mm 3 mps 742 mmHg 91%
    21:00 0°C° 0.1 mm 3 mps 742 mmHg 92%
    22:00 0°C° 0.1 mm 3 mps 742 mmHg 92%
    23:00 0°C° 0.1 mm 3 mps 742 mmHg 92%
    Show more